Погода в Курлово

Россия / Владимирская область     55°27′17″N   40°36′40″E
темп.,
°C
ветер,
м/с
пор.,
м/с
влажн.,
%
обл.,
%
осадки,
мм/ч
давл.,
гПа
погр.,
м
18 июня, пт
пт1800:00+13ссв22790 0.0 102621
03:00+12св11770 0.0 102710
06:00+15ссв116830 0.0 102868
09:00+21с114811 0.0 1028651
12:00+24ссв223823 0.0 10281762
15:00+26св11360 0.0 10261873
18:00+25в01465 0.0 10251658
21:00+17ю377775 0.0 1026123
19 июня, сб
сб1900:00+15ююз37865 0.0 1027126
03:00+14юз23935 0.0 102758
06:00+17юз23825 0.0 1028149
09:00+23зюз345849 0.0 1027726
12:00+26зюз34435 0.0 10261438
15:00+28зюз34385 0.0 10241654
18:00+26зюз35500 0.0 1024636
21:00+19зюз25815 0.0 102482
20 июня, вс
вс2000:00+16зюз22900 0.0 102539
03:00+15зюз22953 0.0 102528
06:00+18зюз13801 0.0 1025119
09:00+24юз225622 0.0 1024628
12:00+27юз23393 0.0 10241354
15:00+29ююз23380 0.0 10221597
18:00+27юз24500 0.0 1022513
21:00+20зюз238144 0.0 102245
21 июня, пн
пн2100:00+17юз229091 0.0 102317
03:00+17юз1194100 0.0 102311
06:00+19ююз128289 0.0 102391
09:00+24ююз2360100 0.0 1023629
12:00+28ююз224488 0.0 10221337
15:00+29ююз233972 0.0 10211766
18:00+28ююз135367 0.0 1021174
21:00+21зюз228129 0.0 102135
22 июня, вт
вт2200:00+19з22886 0.0 102222
03:00+18юз119313 0.0 102211
06:00+21ююв118176 0.0 102379
09:00+26юв125851 0.0 1022602
12:00+30ююв22390 0.0 10221688
15:00+31ю22340 0.0 10212131
18:00+30ююз12460 0.0 1021309
21:00+22ююз24790 0.0 102269